Galveston, TX

1:19 PM CDT on September 27, 2016 (GMT -0500)
Scholes International At Galveston

Weather History for KGLS - March, 2013

Change the Weather History Date:

Saturday, March 2, 2013

  Actual Average Record
Temperature  
Mean Temperature 54 °F 60 °F  
Max Temperature 59 °F 67 °F 77 °F (1940)
Min Temperature 48 °F 54 °F 26 °F (1980)
Degree Days  
Heating Degree Days 11 5  
Month to date heating degree days 19 11  
Since 1 July heating degree days 629 899  
Cooling Degree Days 0 1  
Month to date cooling degree days 0 2  
Year to date cooling degree days 36 19  
Growing Degree Days 4 (Base 50)    
Moisture  
Dew Point 31 °F    
Average Humidity 45    
Maximum Humidity 61    
Minimum Humidity 28    
Precipitation  
Precipitation T in 0.12 in 1.22 in (2005)
Month to date precipitation T 0.24  
Year to date precipitation 9.42 7.01  
Snow  
Snow 0.00 in - - ()
Month to date snowfall 0.0  
Since 1 July snowfall 0.0  
Snow Depth 0.00 in    
Sea Level Pressure  
Sea Level Pressure 30.29 in    
Wind  
Wind Speed 16 mph (NNW)    
Max Wind Speed 26 mph    
Max Gust Speed 32 mph    
Visibility 10 miles    
Events      
T = Trace of Precipitation, MM = Missing Value Source: NWS Daily Summary

Daily Weather History Graph

Daily Weather History Graph

Search for Another Location

Airport or City:

Trip Planner

Search our weather history database for the weather conditions in past years. The results will help you decide how hot, cold, wet, or windy it might be!

Date:

Astronomy

Mar. 02, 2013 Rise Set
Actual Time 6:43 AM CST 6:19 PM CST
Civil Twilight 6:19 AM CST 6:43 PM CST
Nautical Twilight 5:52 AM CST 7:11 PM CST
Astronomical Twilight 5:24 AM CST 7:38 PM CST
Moon 11:30 PM CST (3/2) 9:39 AM CST (3/2)
Length of Visible Light 12h 24m
Length of Day
11h 36m
Waning Gibbous, 74% of the Moon is Illuminated
Mar 2
Waning Gibbous
Mar 4
Last Quarter
Mar 11
New
Mar 19
First Quarter
Mar 27
Full

Hourly Weather History & Observations

Time (CST) Temp. Dew Point Humidity Pressure Visibility Wind Dir Wind Speed Gust Speed Precip Events Conditions
12:52 AM 57.0 °F 37.0 °F 47% 30.27 in 10.0 mi NNW 13.8 mph - N/A   Overcast
1:52 AM 53.1 °F 37.0 °F 55% 30.26 in 10.0 mi North 5.8 mph - 0.00 in   Clear
2:52 AM 53.1 °F 36.0 °F 52% 30.25 in 10.0 mi North 10.4 mph - N/A   Clear
3:52 AM 53.1 °F 36.0 °F 52% 30.26 in 10.0 mi North 16.1 mph - N/A   Clear
4:52 AM 51.1 °F 37.0 °F 59% 30.27 in 10.0 mi NNW 16.1 mph - N/A   Clear
5:52 AM 48.9 °F 36.0 °F 61% 30.28 in 10.0 mi North 21.9 mph 28.8 mph N/A   Partly Cloudy
6:52 AM 48.0 °F 34.0 °F 58% 30.30 in 10.0 mi NNW 18.4 mph - N/A   Clear
7:52 AM 48.0 °F 35.1 °F 61% 30.33 in 10.0 mi North 23.0 mph - N/A   Clear
8:52 AM 48.9 °F 34.0 °F 56% 30.35 in 10.0 mi North 19.6 mph - N/A   Clear
9:52 AM 50.0 °F 35.1 °F 57% 30.35 in 10.0 mi North 17.3 mph - N/A   Clear
10:52 AM 52.0 °F 32.0 °F 47% 30.34 in 10.0 mi NNW 16.1 mph - N/A   Clear
11:52 AM 55.0 °F 28.0 °F 35% 30.32 in 10.0 mi NNW 15.0 mph 23.0 mph N/A   Clear
12:52 PM 57.0 °F 27.0 °F 32% 30.30 in 10.0 mi NNW 20.7 mph 27.6 mph N/A   Clear
1:52 PM 57.9 °F 28.0 °F 32% 30.27 in 10.0 mi NW 20.7 mph 28.8 mph N/A   Clear
2:52 PM 57.9 °F 28.0 °F 32% 30.26 in 10.0 mi NW 21.9 mph 28.8 mph N/A   Clear
3:52 PM 59.0 °F 27.0 °F 29% 30.25 in 10.0 mi NW 16.1 mph 26.5 mph N/A   Clear
4:52 PM 57.9 °F 28.0 °F 32% 30.25 in 10.0 mi NNW 19.6 mph - N/A   Clear
5:52 PM 55.9 °F 25.0 °F 30% 30.27 in 10.0 mi NNW 19.6 mph 26.5 mph N/A   Clear
6:52 PM 54.0 °F 26.1 °F 34% 30.29 in 10.0 mi NW 17.3 mph - N/A   Clear
7:52 PM 53.1 °F 28.0 °F 38% 30.30 in 10.0 mi NNW 13.8 mph - N/A   Clear
8:52 PM 52.0 °F 30.0 °F 43% 30.31 in 10.0 mi NNW 12.7 mph - N/A   Clear
9:52 PM 52.0 °F 28.9 °F 41% 30.31 in 10.0 mi NNW 13.8 mph - N/A   Clear
10:52 PM 51.1 °F 30.0 °F 44% 30.31 in 10.0 mi North 10.4 mph - N/A   Clear
11:52 PM 51.8 °F 28.4 °F 41% 30.30 in 10.0 mi North 12.7 mph - N/A   Clear